Regional Weather Roundup
Issued by NWS

Home | Current Version | Previous Version | Text Only | Print | Product List | Glossary On
Versions: 1 2 3 4 5 6 7 8 9 10 11 12 13 14 15 16 17 18 19 20 21 22 23 24 25 26 27 28 29 30 31 32 33 34 35 36 37 38 39 40 41 42 43 44 45 46 47 48 49 50
000
ASPQ40 PGUM 031314
RWRPQ
WEATHER ROUNDUP FOR THE MARIANAS AND MICRONESIA
NATIONAL WEATHER SERVICE TIYAN GU
1100 PM CHST MON AUG 03 2015

GUZ001>004-031400-
MARIANA ISLANDS-

CITY           SKY/WX    TMP DP  RH WIND       PRES   REMARKS
GUAM AIRPORT   PTCLDY    81  77  89 S5        29.65F
ANDERSEN AFB   NOT AVBL
ROTA AIRPORT   NOT AVBL
TINIAN AP      NOT AVBL
SAIPAN AP      NOT AVBL

$$

PMZ161-031400-
REPUBLIC OF PALAU-

CITY           SKY/WX    TMP DP  RH WIND       PRES   REMARKS
KOROR AP       SHOWER    77  75  94 W23G37    29.76R
KOROR WSO      LGT RAIN  79  75  89 W10       29.80S

$$

PMZ171>174-031400-
FEDERATED STATES OF MICRONESIA-

CITY           SKY/WX    TMP DP  RH WIND       PRES   REMARKS
YAP AIRPORT    MOCLDY    82  77  83 W12       29.71F HX  91
CHUUK AP       LGT RAIN  79  77  94 SW12      29.83R
POHNPEI AP     NOT AVBL
POHNPEI WSO    CLOUDY    79  77  94 E3        29.85F
KOSRAE AP      NOT AVBL

$$

PMZ181-031400-
REPUBLIC OF THE MARSHALL ISLANDS-

CITY           SKY/WX    TMP DP  RH WIND       PRES   REMARKS
KWAJALEIN AP   PTCLDY    81  73  78 CALM      29.78F
MAJURO AP      NOT AVBL
MAJURO WSO     PTCLDY    82  77  83 E5        29.75F HX  91

$$




USA.gov is the U.S. government's official web portal to all federal, state and local government web resources and services.